Airfield :
LOGIN :

Register | Disclaimer

   EN    FR    IT 

 










Legend :    VFR   Marginal VFR   IFR   Intensive IFR   Very Intensive IFR
Visi :
Ceiling :
>= 8 km
>= 3000ft
5 to 8 km
1000 to 3000 ft
1500m to 5 km
500 to 1000 ft
800 to 1500m
200 to 500 ft
< 800m
< 200 ft
Symbols :   Thunderstorms  Fog  Heavy snow  Heavy precipitations  Wind > 20 kt
SIGMETs :     Misc.  Thunderstorms  Icing  Turbulence  Mountain Waves  Volcanic Ashes







- Airport Elevation : 357 ft
- IATA code : TUF
- Download approach charts


LFOT - Tours

CURRENT METAR :
  • 210730Z AUTO 33003KT 8000 NSC M01/M02 Q1022 TEMPO BKN013

EXPIRED METARs :
  • 210700Z AUTO 34002KT 9000 NSC M01/M01 Q1022 TEMPO BKN013
  • 210630Z AUTO 34003KT CAVOK M00/M01 Q1022 TEMPO BKN013
  • 210600Z AUTO VRB01KT CAVOK 00/M02 Q1022 TEMPO BKN013
  • 210530Z AUTO 35003KT 9999 FEW015 01/M01 Q1022 TEMPO BKN013
  • 210500Z AUTO 01005KT 9999 BKN014 01/M01 Q1022 NOSIG

TAF TAF LFOT
Valid from the 21 at 06:00 until the 22 at 06:00 UTC


210500Z 2106/2206 01006KT CAVOK
TEMPO 2106/2109 BKN013
BECMG 2203/2206 18008KT SCT007 BKN012
TEMPO 2205/2206 3000 -RA BKN007
No reported NOTAMs for that airfield.



MET'MAP, your aeronautical weather chart ! - Copyright ORBIFLY December 2007 - Disclaimer

ORBIFLY MET'MAP TEAM :

Programming & Development : Alexandra Zaïnal
Concept & Development : Baudouin d'Aumeries
Co-Development & Prog : Marc-Olivier Méhu
Technical & hardware support : Manuel Goepfert

Contact : metmap@orbifly.com




SOURCES & CREDITS :

   NOAA